Regional Weather Roundup
Issued by NWS

Home | Current Version | Previous Version | Text Only | Print | Product List | Glossary Off
Versions: 1 2 3 4 5 6 7 8 9 10 11 12 13 14 15 16 17 18 19 20 21 22 23 24 25 26 27 28 29 30 31 32 33 34 35 36 37 38 39 40 41 42 43 44 45 46 47 48 49 50

000
ASUS43 KBIS 161310
RWRND

NORTH DAKOTA REGIONAL WEATHER ROUNDUP
NATIONAL WEATHER SERVICE BISMARCK ND
800 AM CDT TUE SEP 16 2014

NOTE: "FAIR" INDICATES FEW OR NO CLOUDS BELOW 12,000 FEET WITH NO
SIGNIFICANT WEATHER AND/OR OBSTRUCTIONS TO VISIBILITY.


NDZ001>003-009>011-017-161400-
NORTHWEST NORTH DAKOTA

CITY           SKY/WX    TMP DP  RH WIND       PRES   REMARKS
WILLISTON      PTCLDY    34  31  88 CALM      30.02S FOG
MINOT          CLEAR     48  39  71 SW10      30.01S
MINOT AFB      CLEAR     41  39  94 SW7       30.00S
$$

NDZ018>021-031>035-040>046-161400-
SOUTHWEST NORTH DAKOTA

CITY           SKY/WX    TMP DP  RH WIND       PRES   REMARKS
BISMARCK       CLEAR     42  38  85 NE5       30.06S
DICKINSON      CLEAR     38  35  89 CALM      30.01S
GARRISON         N/A     44  40  85 E3        30.02F
HETTINGER ARPT CLEAR     34  32  92 CALM      30.04S
$$

NDZ004>008-012>016-024-026-027-054-161400-
NORTHEAST NORTH DAKOTA

CITY           SKY/WX    TMP DP  RH WIND       PRES   REMARKS
GRAND FORKS    PTCLDY    44  39  82 CALM      30.04S
GRND FRKS AFB  CLEAR     46  41  81 W6        30.04S
DEVILS LAKE    CLEAR     50  37  62 SW10      30.02S
$$

NDZ022-023-025-028>030-036>039-047>053-161400-
SOUTHEAST NORTH DAKOTA

CITY           SKY/WX    TMP DP  RH WIND       PRES   REMARKS
FARGO          CLEAR     45  38  76 S8        30.09S
JAMESTOWN      CLEAR     40  36  86 S6        30.07R
$$



USA.gov is the U.S. government's official web portal to all federal, state and local government web resources and services.